Location: Colonia Mina de C?rbuni
(46.1667°N, 22.7167°E)
Time: 09:15:56
(UTC+00:00)

Vanguard 2 - Pass Details

Date: 19 April 2024
Orbit: 553 x 2901 km, 32.9° (Epoch: 16 May)

Event Time Altitude Azimuth Distance (km) Brightness Sun altitude
Rises 05:23:04 0° 272° (W) 6,757 11.7 17.6°
Reaches altitude 10° 05:28:09 10° 265° (W) 5,711 11.4 18.5°
Maximum altitude 05:42:45 36° 208° (SSW) 3,477 10.9 21.0°
Drops below altitude 10° 05:53:50 10° 148° (SSE) 4,342 12.0 22.9°
Sets 05:57:07 0° 139° (SE) 5,027 12.4 23.5°
